This is the latest recevied weather packets stored in our database for station/object K7TSD. If no packets are shown the sender has not sent any weather packets the latest 10 day(s).
| Time | Temp. | Humidity | Pressure | Rain* | Wind** | Luminosity | Snow |
|---|---|---|---|---|---|---|---|
| 1778094874 | 7.22° C | 47% | 1013 hPa | 0 mm | - | 698 W/m² | - |
| 1778094571 | 7.78° C | 45% | 1013.5 hPa | 0 mm | - | 741 W/m² | - |
| 1778094268 | 7.22° C | 49% | 1013.2 hPa | 0 mm | - | 727 W/m² | - |
| 1778093965 | 7.78° C | 47% | 1013.1 hPa | 0 mm | - | 730 W/m² | - |
| 1778093663 | 7.22° C | 48% | 1013.2 hPa | 0 mm | - | 732 W/m² | - |
| 1778093359 | 7.22° C | 54% | 1013.5 hPa | 0 mm | - | 717 W/m² | - |
| 1778093056 | 7.22° C | 49% | 1013.8 hPa | 0 mm | - | 767 W/m² | - |
| 1778092753 | 7.78° C | 48% | 1013.6 hPa | 0 mm | - | 753 W/m² | - |
| 1778092448 | 7.78° C | 47% | 1013.9 hPa | 0 mm | - | 778 W/m² | - |
| 1778092146 | 6.67° C | 47% | 1013.7 hPa | 0 mm | - | 783 W/m² | - |
| 1778091843 | 6.67° C | 47% | 1014.2 hPa | 0 mm | - | 743 W/m² | - |
| 1778091540 | 7.22° C | 45% | 1014 hPa | 0 mm | - | 788 W/m² | - |
| 1778091238 | 6.11° C | 49% | 1014.2 hPa | 0 mm | - | 811 W/m² | - |
| 1778090935 | 6.11° C | 50% | 1014.4 hPa | 0 mm | - | 865 W/m² | - |
| 1778090631 | 6.11° C | 46% | 1014.4 hPa | 0 mm | - | 835 W/m² | - |
| 1778090328 | 6.67° C | 46% | 1014.3 hPa | 0 mm | - | 812 W/m² | - |
| 1778090024 | 6.11° C | 48% | 1014.4 hPa | 0 mm | - | 786 W/m² | - |
| 1778089721 | 7.22° C | 43% | 1014.5 hPa | 0 mm | - | 786 W/m² | - |
| 1778089419 | 7.22° C | 46% | 1014.5 hPa | 0 mm | - | 801 W/m² | - |
| 1778089116 | 7.22° C | 46% | 1014.7 hPa | 0 mm | - | 780 W/m² | - |
| 1778088813 | 6.67° C | 48% | 1014.9 hPa | 0 mm | - | 802 W/m² | - |
| 1778088510 | 7.22° C | 46% | 1014.6 hPa | 0 mm | - | 811 W/m² | - |
| 1778088207 | 6.11° C | 49% | 1014.6 hPa | 0 mm | - | 806 W/m² | - |
| 1778087904 | 5.56° C | 46% | 1014.7 hPa | 0 mm | - | 789 W/m² | - |
| 1778087601 | 5° C | 48% | 1014.7 hPa | 0 mm | - | 803 W/m² | - |
* Rain latest hour (hover to see other rain measurements)
** Current wind speed in m/s (hover to see current wind gust speed)